Time,TemperatureF,DewpointF,PressureIn,WindDirection,WindDirectionDegrees,WindSpeedMPH,WindSpeedGustMPH,Humidity,HourlyPrecipIn,Conditions,Clouds,dailyrainin,SoftwareType,DateUTC
2013-08-16 00:00:00,67.6,60.1,29.83,SE,135,1.0,5.0,77,0.00,,---,0.00,VWS V14.01,2013-08-16 07:00:00,
2013-08-16 00:15:00,67.0,60.3,29.83,ESE,112,2.0,6.0,79,0.00,,---,0.00,VWS V14.01,2013-08-16 07:15:00,
2013-08-16 00:30:00,66.5,60.5,29.83,ESE,112,1.0,6.0,81,0.00,,---,0.00,VWS V14.01,2013-08-16 07:30:00,
2013-08-16 00:45:00,66.0,60.3,29.84,ESE,112,1.0,6.0,82,0.00,,---,0.00,VWS V14.01,2013-08-16 07:45:00,
2013-08-16 01:00:00,65.5,60.2,29.84,ESE,112,1.0,6.0,83,0.00,,---,0.00,VWS V14.01,2013-08-16 08:00:00,
2013-08-16 01:15:00,65.0,60.0,29.83,East,90,2.0,6.0,84,0.00,,---,0.00,VWS V14.01,2013-08-16 08:15:00,
2013-08-16 01:30:00,64.7,60.4,29.84,East,90,2.0,7.0,86,0.00,,---,0.00,VWS V14.01,2013-08-16 08:30:00,
2013-08-16 01:45:00,64.4,60.5,29.84,East,90,1.0,7.0,87,0.00,,---,0.00,VWS V14.01,2013-08-16 08:45:00,
2013-08-16 02:00:00,64.1,60.2,29.84,East,90,1.0,6.0,87,0.00,,---,0.00,VWS V14.01,2013-08-16 09:00:00,
2013-08-16 02:15:00,63.9,60.0,29.83,ESE,112,1.0,7.0,87,0.00,,---,0.00,VWS V14.01,2013-08-16 09:15:00,
2013-08-16 02:30:00,63.6,60.0,29.84,ESE,112,2.0,7.0,88,0.00,,---,0.00,VWS V14.01,2013-08-16 09:30:00,
2013-08-16 02:45:00,63.4,59.8,29.84,ESE,112,1.0,5.0,88,0.00,,---,0.00,VWS V14.01,2013-08-16 09:45:00,
2013-08-16 03:00:00,63.1,59.8,29.84,ESE,112,1.0,6.0,89,0.00,,---,0.00,VWS V14.01,2013-08-16 10:00:00,
2013-08-16 03:15:00,62.9,59.6,29.84,ESE,112,3.0,8.0,89,0.00,,---,0.00,VWS V14.01,2013-08-16 10:15:00,
2013-08-16 03:30:00,62.8,59.8,29.84,ESE,112,4.0,8.0,90,0.00,,---,0.00,VWS V14.01,2013-08-16 10:30:00,
2013-08-16 03:45:00,62.7,59.7,29.84,ESE,112,4.0,7.0,90,0.00,,---,0.00,VWS V14.01,2013-08-16 10:45:00,
2013-08-16 04:00:00,62.4,59.4,29.84,ESE,112,4.0,7.0,90,0.00,,---,0.00,VWS V14.01,2013-08-16 11:00:00,
2013-08-16 04:15:00,62.2,59.2,29.84,ESE,112,3.0,6.0,90,0.00,,---,0.00,VWS V14.01,2013-08-16 11:15:00,
2013-08-16 04:30:00,62.0,59.0,29.84,ESE,112,1.0,5.0,90,0.00,,---,0.00,VWS V14.01,2013-08-16 11:30:00,
2013-08-16 04:45:00,61.7,58.7,29.84,ESE,112,2.0,5.0,90,0.00,,---,0.00,VWS V14.01,2013-08-16 11:45:00,
2013-08-16 05:00:00,61.4,58.5,29.85,ESE,112,2.0,6.0,90,0.00,,---,0.00,VWS V14.01,2013-08-16 12:00:00,
2013-08-16 05:15:00,61.4,58.8,29.85,ESE,112,1.0,4.0,91,0.00,,---,0.00,VWS V14.01,2013-08-16 12:15:00,
2013-08-16 05:30:00,61.3,58.7,29.85,ESE,112,2.0,6.0,91,0.00,,---,0.00,VWS V14.01,2013-08-16 12:30:00,
2013-08-16 05:45:00,61.2,58.6,29.85,ESE,112,2.0,5.0,91,0.00,,---,0.00,VWS V14.01,2013-08-16 12:45:00,
2013-08-16 06:00:00,61.0,58.7,29.85,ESE,112,1.0,4.0,92,0.00,,---,0.00,VWS V14.01,2013-08-16 13:00:00,
2013-08-16 06:15:00,60.9,58.6,29.86,ESE,112,1.0,5.0,92,0.00,,---,0.00,VWS V14.01,2013-08-16 13:15:00,
2013-08-16 06:30:00,61.3,58.7,29.85,ESE,112,2.0,6.0,91,0.00,,---,0.00,VWS V14.01,2013-08-16 13:30:00,
2013-08-16 06:39:00,60.7,58.4,29.86,ESE,103,0.0,1.0,92,0.00,,---,0.00,VWS V14.01,2013-08-16 13:39:00,
2013-08-16 06:44:00,60.8,58.5,29.86,ESE,103,1.0,2.0,92,0.00,,---,0.00,VWS V14.01,2013-08-16 13:44:00,
2013-08-16 06:45:00,60.7,58.4,29.87,ESE,103,0.0,2.0,92,0.00,,---,0.00,VWS V14.01,2013-08-16 13:45:00,
2013-08-16 06:49:00,60.7,58.4,29.87,ESE,103,1.0,1.0,92,0.00,,---,0.00,VWS V14.01,2013-08-16 13:49:00,
2013-08-16 06:54:00,60.7,58.4,29.87,ESE,103,0.0,5.0,92,0.00,,---,0.00,VWS V14.01,2013-08-16 13:54:00,
2013-08-16 06:59:00,60.8,58.8,29.87,ESE,103,1.0,5.0,93,0.00,,---,0.00,VWS V14.01,2013-08-16 13:59:00,
2013-08-16 07:00:00,60.8,58.8,29.87,ESE,103,2.0,5.0,93,0.00,,---,0.00,VWS V14.01,2013-08-16 14:00:00,
2013-08-16 07:04:00,60.9,58.9,29.87,ESE,103,4.0,4.0,93,0.00,,---,0.00,VWS V14.01,2013-08-16 14:04:00,
2013-08-16 07:09:00,61.0,59.0,29.87,ESE,103,5.0,5.0,93,0.00,,---,0.00,VWS V14.01,2013-08-16 14:09:00,
2013-08-16 07:14:00,61.1,59.1,29.88,ESE,103,1.0,5.0,93,0.00,,---,0.00,VWS V14.01,2013-08-16 14:14:00,
2013-08-16 07:15:00,61.2,59.2,29.88,ESE,103,1.0,5.0,93,0.00,,---,0.00,VWS V14.01,2013-08-16 14:15:00,
2013-08-16 07:19:00,61.2,59.2,29.88,ESE,103,0.0,4.0,93,0.00,,---,0.00,VWS V14.01,2013-08-16 14:19:00,
2013-08-16 07:24:00,61.4,59.4,29.88,ESE,102,7.0,7.0,93,0.00,,---,0.00,VWS V14.01,2013-08-16 14:24:00,
2013-08-16 07:29:00,61.6,59.6,29.88,East,101,2.0,7.0,93,0.00,,---,0.00,VWS V14.01,2013-08-16 14:29:00,
2013-08-16 07:30:00,61.6,59.6,29.88,East,101,0.0,7.0,93,0.00,,---,0.00,VWS V14.01,2013-08-16 14:30:00,
2013-08-16 07:34:00,61.7,59.7,29.88,East,101,2.0,4.0,93,0.00,,---,0.00,VWS V14.01,2013-08-16 14:34:00,
2013-08-16 07:39:00,61.9,60.2,29.88,East,100,1.0,4.0,94,0.00,,---,0.00,VWS V14.01,2013-08-16 14:39:00,
2013-08-16 07:44:00,62.1,60.4,29.89,East,100,0.0,5.0,94,0.00,,---,0.00,VWS V14.01,2013-08-16 14:44:00,
2013-08-16 07:45:00,62.1,60.4,29.89,East,100,0.0,5.0,94,0.00,,---,0.00,VWS V14.01,2013-08-16 14:45:00,
2013-08-16 07:49:00,62.2,60.5,29.89,East,100,0.0,1.0,94,0.00,,---,0.00,VWS V14.01,2013-08-16 14:49:00,
2013-08-16 07:54:00,62.3,60.2,29.89,East,100,0.0,4.0,93,0.00,,---,0.00,VWS V14.01,2013-08-16 14:54:00,
2013-08-16 07:59:00,62.5,60.5,29.89,East,100,0.0,5.0,93,0.00,,---,0.00,VWS V14.01,2013-08-16 14:59:00,
2013-08-16 08:00:00,62.5,60.5,29.89,East,100,0.0,5.0,93,0.00,,---,0.00,VWS V14.01,2013-08-16 15:00:00,
2013-08-16 08:04:00,62.6,60.8,29.89,East,100,0.0,0.0,94,0.00,,---,0.00,VWS V14.01,2013-08-16 15:04:00,
2013-08-16 08:09:00,62.8,61.0,29.89,East,100,0.0,5.0,94,0.00,,---,0.00,VWS V14.01,2013-08-16 15:09:00,
2013-08-16 08:14:00,63.1,61.3,29.89,East,100,0.0,5.0,94,0.00,,---,0.00,VWS V14.01,2013-08-16 15:14:00,
2013-08-16 08:15:00,63.2,61.5,29.89,East,100,2.0,5.0,94,0.00,,---,0.00,VWS V14.01,2013-08-16 15:15:00,
2013-08-16 08:19:00,63.4,61.7,29.89,East,100,0.0,2.0,94,0.00,,---,0.00,VWS V14.01,2013-08-16 15:19:00,
2013-08-16 08:24:00,63.6,61.5,29.89,East,100,0.0,2.0,93,0.00,,---,0.00,VWS V14.01,2013-08-16 15:24:00,
2013-08-16 08:29:00,63.9,61.8,29.89,East,100,0.0,2.0,93,0.00,,---,0.00,VWS V14.01,2013-08-16 15:29:00,
2013-08-16 08:30:00,64.0,61.9,29.89,East,100,0.0,2.0,93,0.00,,---,0.00,VWS V14.01,2013-08-16 15:30:00,
2013-08-16 08:34:00,64.3,62.2,29.89,East,100,0.0,0.0,93,0.00,,---,0.00,VWS V14.01,2013-08-16 15:34:00,
2013-08-16 08:39:00,64.5,62.4,29.89,East,100,0.0,0.0,93,0.00,,---,0.00,VWS V14.01,2013-08-16 15:39:00,
2013-08-16 08:44:00,65.0,62.6,29.89,East,100,1.0,1.0,92,0.00,,---,0.00,VWS V14.01,2013-08-16 15:44:00,
2013-08-16 08:45:00,65.2,62.8,29.90,East,100,0.0,1.0,92,0.00,,---,0.00,VWS V14.01,2013-08-16 15:45:00,
2013-08-16 08:49:00,65.4,62.7,29.90,East,100,0.0,0.0,91,0.00,,---,0.00,VWS V14.01,2013-08-16 15:49:00,
2013-08-16 08:54:00,66.1,63.4,29.90,East,100,0.0,0.0,91,0.00,,---,0.00,VWS V14.01,2013-08-16 15:54:00,
2013-08-16 08:59:00,66.7,63.4,29.90,East,100,0.0,0.0,89,0.00,,---,0.00,VWS V14.01,2013-08-16 15:59:00,
2013-08-16 09:00:00,67.0,63.7,29.90,East,100,0.0,0.0,89,0.00,,---,0.00,VWS V14.01,2013-08-16 16:00:00,
2013-08-16 09:04:00,67.3,63.6,29.90,East,100,0.0,1.0,88,0.00,,---,0.00,VWS V14.01,2013-08-16 16:04:00,
2013-08-16 09:09:00,68.0,64.0,29.90,East,100,2.0,4.0,87,0.00,,---,0.00,VWS V14.01,2013-08-16 16:09:00,
2013-08-16 09:14:00,68.6,63.9,29.89,East,100,1.0,5.0,85,0.00,,---,0.00,VWS V14.01,2013-08-16 16:14:00,
2013-08-16 09:15:00,68.8,63.8,29.89,East,100,0.0,5.0,84,0.00,,---,0.00,VWS V14.01,2013-08-16 16:15:00,
2013-08-16 09:19:00,69.2,64.2,29.89,East,100,0.0,0.0,84,0.00,,---,0.00,VWS V14.01,2013-08-16 16:19:00,
2013-08-16 09:24:00,69.9,64.2,29.89,East,100,0.0,0.0,82,0.00,,---,0.00,VWS V14.01,2013-08-16 16:24:00,
2013-08-16 09:29:00,70.7,64.6,29.89,East,100,0.0,1.0,81,0.00,,---,0.00,VWS V14.01,2013-08-16 16:29:00,
2013-08-16 09:30:00,71.1,64.6,29.90,East,100,0.0,1.0,80,0.00,,---,0.00,VWS V14.01,2013-08-16 16:30:00,
2013-08-16 09:34:00,71.5,64.7,29.90,East,100,1.0,4.0,79,0.00,,---,0.00,VWS V14.01,2013-08-16 16:34:00,
2013-08-16 09:39:00,72.3,64.7,29.90,East,100,0.0,4.0,77,0.00,,---,0.00,VWS V14.01,2013-08-16 16:39:00,
2013-08-16 09:44:00,73.0,65.0,29.90,East,100,0.0,4.0,76,0.00,,---,0.00,VWS V14.01,2013-08-16 16:44:00,
2013-08-16 09:45:00,73.4,65.4,29.90,East,100,0.0,4.0,76,0.00,,---,0.00,VWS V14.01,2013-08-16 16:45:00,
2013-08-16 09:49:00,73.8,65.0,29.90,East,100,0.0,0.0,74,0.00,,---,0.00,VWS V14.01,2013-08-16 16:49:00,
2013-08-16 09:54:00,74.5,65.3,29.90,East,100,0.0,0.0,73,0.00,,---,0.00,VWS V14.01,2013-08-16 16:54:00,
2013-08-16 09:59:00,75.3,66.1,29.90,East,100,0.0,5.0,73,0.00,,---,0.00,VWS V14.01,2013-08-16 16:59:00,
2013-08-16 10:00:00,75.8,65.7,29.90,East,100,0.0,5.0,71,0.00,,---,0.00,VWS V14.01,2013-08-16 17:00:00,
2013-08-16 10:03:00,76.3,66.2,29.90,East,100,0.0,0.0,71,0.00,,---,0.00,VWS V14.01,2013-08-16 17:03:00,
2013-08-16 10:08:00,77.1,65.7,29.90,East,100,0.0,2.0,68,0.00,,---,0.00,VWS V14.01,2013-08-16 17:08:00,
2013-08-16 10:13:00,77.7,65.4,29.90,East,100,0.0,2.0,66,0.00,,---,0.00,VWS V14.01,2013-08-16 17:13:00,
2013-08-16 10:15:00,77.9,66.1,29.90,East,100,0.0,2.0,67,0.00,,---,0.00,VWS V14.01,2013-08-16 17:15:00,
2013-08-16 10:18:00,78.3,66.0,29.90,East,100,0.0,0.0,66,0.00,,---,0.00,VWS V14.01,2013-08-16 17:18:00,
2013-08-16 10:23:00,78.9,65.7,29.90,East,100,0.0,2.0,64,0.00,,---,0.00,VWS V14.01,2013-08-16 17:23:00,
2013-08-16 10:28:00,79.5,66.3,29.90,East,100,1.0,4.0,64,0.00,,---,0.00,VWS V14.01,2013-08-16 17:28:00,
2013-08-16 10:30:00,79.8,66.1,29.90,East,100,2.0,4.0,63,0.00,,---,0.00,VWS V14.01,2013-08-16 17:30:00,
2013-08-16 10:33:00,80.2,66.0,29.90,East,100,2.0,2.0,62,0.00,,---,0.00,VWS V14.01,2013-08-16 17:33:00,
2013-08-16 10:38:00,80.8,67.0,29.90,ESE,102,4.0,5.0,63,0.00,,---,0.00,VWS V14.01,2013-08-16 17:38:00,
2013-08-16 10:43:00,81.4,66.7,29.90,ESE,103,0.0,7.0,61,0.00,,---,0.00,VWS V14.01,2013-08-16 17:43:00,
2013-08-16 10:45:00,81.5,65.8,29.90,ESE,108,2.0,7.0,59,0.00,,---,0.00,VWS V14.01,2013-08-16 17:45:00,
2013-08-16 10:48:00,81.6,65.9,29.90,ESE,108,0.0,2.0,59,0.00,,---,0.00,VWS V14.01,2013-08-16 17:48:00,
2013-08-16 10:53:00,81.9,65.7,29.90,ESE,108,2.0,4.0,58,0.00,,---,0.00,VWS V14.01,2013-08-16 17:53:00,
2013-08-16 10:58:00,82.0,65.3,29.90,ESE,108,2.0,4.0,57,0.00,,---,0.00,VWS V14.01,2013-08-16 17:58:00,
2013-08-16 11:00:00,82.2,65.5,29.90,ESE,108,0.0,4.0,57,0.00,,---,0.00,VWS V14.01,2013-08-16 18:00:00,
2013-08-16 11:03:00,82.5,65.2,29.90,ESE,108,1.0,1.0,56,0.00,,---,0.00,VWS V14.01,2013-08-16 18:03:00,
2013-08-16 11:08:00,82.9,65.6,29.90,ESE,109,2.0,7.0,56,0.00,,---,0.00,VWS V14.01,2013-08-16 18:08:00,
2013-08-16 11:13:00,83.4,65.0,29.90,ESE,109,2.0,7.0,54,0.00,,---,0.00,VWS V14.01,2013-08-16 18:13:00,
2013-08-16 11:15:00,83.6,65.7,29.90,ESE,109,0.0,7.0,55,0.00,,---,0.00,VWS V14.01,2013-08-16 18:15:00,
2013-08-16 11:18:00,83.9,66.0,29.91,ESE,109,0.0,2.0,55,0.00,,---,0.00,VWS V14.01,2013-08-16 18:18:00,
2013-08-16 11:23:00,84.7,65.7,29.90,ESE,109,1.0,2.0,53,0.00,,---,0.00,VWS V14.01,2013-08-16 18:23:00,
2013-08-16 11:28:00,85.3,65.7,29.90,ESE,107,1.0,6.0,52,0.00,,---,0.00,VWS V14.01,2013-08-16 18:28:00,
2013-08-16 11:30:00,85.7,66.1,29.90,ESE,107,1.0,6.0,52,0.00,,---,0.00,VWS V14.01,2013-08-16 18:30:00,
2013-08-16 11:33:00,86.1,65.9,29.90,ESE,107,0.0,1.0,51,0.00,,---,0.00,VWS V14.01,2013-08-16 18:33:00,
2013-08-16 11:38:00,86.7,67.0,29.90,ESE,106,4.0,4.0,52,0.00,,---,0.00,VWS V14.01,2013-08-16 18:38:00,
2013-08-16 11:43:00,87.4,68.2,29.90,ENE,78,0.0,5.0,53,0.00,,---,0.00,VWS V14.01,2013-08-16 18:43:00,
2013-08-16 11:45:00,87.8,68.0,29.90,East,81,2.0,5.0,52,0.00,,---,0.00,VWS V14.01,2013-08-16 18:45:00,
2013-08-16 11:48:00,88.1,67.1,29.90,East,81,0.0,2.0,50,0.00,,---,0.00,VWS V14.01,2013-08-16 18:48:00,
2013-08-16 11:53:00,88.6,67.0,29.90,East,82,2.0,2.0,49,0.00,,---,0.00,VWS V14.01,2013-08-16 18:53:00,
2013-08-16 11:58:00,88.8,66.6,29.90,East,84,1.0,3.0,48,0.00,,---,0.00,VWS V14.01,2013-08-16 18:58:00,
2013-08-16 12:00:00,89.0,68.0,29.90,ESE,109,4.0,6.0,50,0.00,,---,0.00,VWS V14.01,2013-08-16 19:00:00,
2013-08-16 12:03:00,89.1,66.3,29.90,SE,124,5.0,7.0,47,0.00,,---,0.00,VWS V14.01,2013-08-16 19:03:00,
2013-08-16 12:08:00,89.3,67.1,29.89,SE,128,2.0,7.0,48,0.00,,---,0.00,VWS V14.01,2013-08-16 19:08:00,
2013-08-16 12:13:00,89.8,66.3,29.89,ESE,121,2.0,7.0,46,0.00,,---,0.00,VWS V14.01,2013-08-16 19:13:00,
2013-08-16 12:15:00,90.1,65.9,29.89,ESE,121,0.0,7.0,45,0.00,,---,0.00,VWS V14.01,2013-08-16 19:15:00,
2013-08-16 12:18:00,90.3,66.1,29.89,ESE,123,1.0,2.0,45,0.00,,---,0.00,VWS V14.01,2013-08-16 19:18:00,
2013-08-16 12:23:00,90.8,66.6,29.89,SE,126,1.0,4.0,45,0.00,,---,0.00,VWS V14.01,2013-08-16 19:23:00,
2013-08-16 12:28:00,91.4,65.1,29.89,SE,131,0.0,5.0,42,0.00,,---,0.00,VWS V14.01,2013-08-16 19:28:00,
2013-08-16 12:30:00,91.6,64.6,29.89,SE,141,4.0,5.0,41,0.00,,---,0.00,VWS V14.01,2013-08-16 19:30:00,
2013-08-16 12:33:00,91.8,66.1,29.89,SE,141,1.0,4.0,43,0.00,,---,0.00,VWS V14.01,2013-08-16 19:33:00,
2013-08-16 12:38:00,92.3,65.9,29.88,South,188,0.0,6.0,42,0.00,,---,0.00,VWS V14.01,2013-08-16 19:38:00,
2013-08-16 12:43:00,92.7,66.3,29.88,South,188,0.0,6.0,42,0.00,,---,0.00,VWS V14.01,2013-08-16 19:43:00,
2013-08-16 12:45:00,92.9,66.4,29.89,South,188,0.0,6.0,42,0.00,,---,0.00,VWS V14.01,2013-08-16 19:45:00,
2013-08-16 12:48:00,93.1,64.5,29.88,South,188,1.0,1.0,39,0.00,,---,0.00,VWS V14.01,2013-08-16 19:48:00,
2013-08-16 12:53:00,93.0,65.1,29.89,South,188,1.0,4.0,40,0.00,,---,0.00,VWS V14.01,2013-08-16 19:53:00,
2013-08-16 12:58:00,92.8,64.2,29.88,South,176,1.0,6.0,39,0.00,,---,0.00,VWS V14.01,2013-08-16 19:58:00,
2013-08-16 13:00:00,92.7,64.1,29.88,South,176,1.0,6.0,39,0.00,,---,0.00,VWS V14.01,2013-08-16 20:00:00,
2013-08-16 13:03:00,92.6,64.1,29.88,South,175,2.0,6.0,39,0.00,,---,0.00,VWS V14.01,2013-08-16 20:03:00,
2013-08-16 13:08:00,92.8,63.5,29.89,South,174,4.0,7.0,38,0.00,,---,0.00,VWS V14.01,2013-08-16 20:08:00,
2013-08-16 13:13:00,93.1,64.5,29.88,SSW,199,4.0,7.0,39,0.00,,---,0.00,VWS V14.01,2013-08-16 20:13:00,
2013-08-16 13:15:00,93.3,63.2,29.88,SSW,200,2.0,7.0,37,0.00,,---,0.00,VWS V14.01,2013-08-16 20:15:00,
2013-08-16 13:18:00,93.5,63.3,29.88,SSW,199,2.0,4.0,37,0.00,,---,0.00,VWS V14.01,2013-08-16 20:18:00,
2013-08-16 13:23:00,93.9,63.7,29.88,South,174,2.0,7.0,37,0.00,,---,0.00,VWS V14.01,2013-08-16 20:23:00,
2013-08-16 13:28:00,94.0,61.4,29.88,South,190,0.0,7.0,34,0.00,,---,0.00,VWS V14.01,2013-08-16 20:28:00,
2013-08-16 13:30:00,94.2,60.7,29.88,SSW,193,7.0,8.0,33,0.00,,---,0.00,VWS V14.01,2013-08-16 20:30:00,
2013-08-16 13:33:00,94.2,59.8,29.87,SSW,194,4.0,7.0,32,0.00,,---,0.00,VWS V14.01,2013-08-16 20:33:00,
2013-08-16 13:38:00,94.1,61.5,29.87,SSW,194,2.0,7.0,34,0.00,,---,0.00,VWS V14.01,2013-08-16 20:38:00,
2013-08-16 13:43:00,94.4,60.9,29.87,SSW,198,2.0,7.0,33,0.00,,---,0.00,VWS V14.01,2013-08-16 20:43:00,
2013-08-16 13:45:00,94.7,61.2,29.87,SSW,197,7.0,8.0,33,0.00,,---,0.00,VWS V14.01,2013-08-16 20:45:00,
2013-08-16 13:48:00,94.7,60.3,29.87,SSW,195,3.0,7.0,32,0.00,,---,0.00,VWS V14.01,2013-08-16 20:48:00,
2013-08-16 13:53:00,94.6,59.3,29.87,South,190,2.0,7.0,31,0.00,,---,0.00,VWS V14.01,2013-08-16 20:53:00,
2013-08-16 13:58:00,94.7,62.0,29.87,SSW,202,0.0,7.0,34,0.00,,---,0.00,VWS V14.01,2013-08-16 20:58:00,
2013-08-16 14:00:00,94.9,61.3,29.87,SSW,204,4.0,7.0,33,0.00,,---,0.00,VWS V14.01,2013-08-16 21:00:00,
2013-08-16 14:03:00,95.1,62.3,29.87,SSW,209,3.0,4.0,34,0.00,,---,0.00,VWS V14.01,2013-08-16 21:03:00,
2013-08-16 14:08:00,95.3,60.8,29.87,SW,235,2.0,5.0,32,0.00,,---,0.00,VWS V14.01,2013-08-16 21:08:00,
2013-08-16 14:13:00,95.7,61.2,29.87,WSW,237,0.0,5.0,32,0.00,,---,0.00,VWS V14.01,2013-08-16 21:13:00,
2013-08-16 14:15:00,95.9,61.3,29.86,SW,236,0.0,5.0,32,0.00,,---,0.00,VWS V14.01,2013-08-16 21:15:00,
2013-08-16 14:18:00,96.1,61.5,29.86,WSW,237,2.0,3.0,32,0.00,,---,0.00,VWS V14.01,2013-08-16 21:18:00,
2013-08-16 14:23:00,96.6,62.8,29.86,SW,227,0.0,6.0,33,0.00,,---,0.00,VWS V14.01,2013-08-16 21:23:00,
2013-08-16 14:28:00,97.1,60.5,29.86,SSW,205,6.0,7.0,30,0.00,,---,0.00,VWS V14.01,2013-08-16 21:28:00,
2013-08-16 14:30:00,97.1,61.5,29.86,SSW,205,4.0,7.0,31,0.00,,---,0.00,VWS V14.01,2013-08-16 21:30:00,
2013-08-16 14:33:00,97.3,61.6,29.86,SSW,205,1.0,5.0,31,0.00,,---,0.00,VWS V14.01,2013-08-16 21:33:00,
2013-08-16 14:38:00,97.5,61.8,29.86,SSW,207,2.0,6.0,31,0.00,,---,0.00,VWS V14.01,2013-08-16 21:38:00,
2013-08-16 14:43:00,97.7,62.9,29.86,SSW,207,2.0,6.0,32,0.00,,---,0.00,VWS V14.01,2013-08-16 21:43:00,
2013-08-16 14:45:00,98.0,60.4,29.86,SSW,208,2.0,6.0,29,0.00,,---,0.00,VWS V14.01,2013-08-16 21:45:00,
2013-08-16 14:48:00,98.2,61.5,29.86,SSW,209,1.0,3.0,30,0.00,,---,0.00,VWS V14.01,2013-08-16 21:48:00,
2013-08-16 14:53:00,98.7,61.9,29.85,SSW,211,1.0,5.0,30,0.00,,---,0.00,VWS V14.01,2013-08-16 21:53:00,
2013-08-16 14:58:00,98.9,61.1,29.85,SSW,202,5.0,8.0,29,0.00,,---,0.00,VWS V14.01,2013-08-16 21:58:00,
2013-08-16 15:00:00,99.0,62.2,29.85,SSW,202,3.0,8.0,30,0.00,,---,0.00,VWS V14.01,2013-08-16 22:00:00,
2013-08-16 15:03:00,99.1,63.2,29.85,SSW,207,2.0,5.0,31,0.00,,---,0.00,VWS V14.01,2013-08-16 22:03:00,
2013-08-16 15:08:00,99.2,62.3,29.85,South,191,5.0,9.0,30,0.00,,---,0.00,VWS V14.01,2013-08-16 22:08:00,
2013-08-16 15:13:00,99.4,62.5,29.85,SSW,209,4.0,9.0,30,0.00,,---,0.00,VWS V14.01,2013-08-16 22:13:00,
2013-08-16 15:15:00,99.4,62.5,29.85,SSW,202,5.0,9.0,30,0.00,,---,0.00,VWS V14.01,2013-08-16 22:15:00,
2013-08-16 15:18:00,99.4,63.5,29.85,SSW,203,1.0,5.0,31,0.00,,---,0.00,VWS V14.01,2013-08-16 22:18:00,
2013-08-16 15:23:00,99.3,62.4,29.85,SSW,199,5.0,6.0,30,0.00,,---,0.00,VWS V14.01,2013-08-16 22:23:00,
2013-08-16 15:28:00,99.2,62.3,29.84,SSW,207,4.0,7.0,30,0.00,,---,0.00,VWS V14.01,2013-08-16 22:28:00,
2013-08-16 15:30:00,98.9,62.1,29.84,SSW,193,4.0,8.0,30,0.00,,---,0.00,VWS V14.01,2013-08-16 22:30:00,
2013-08-16 15:32:00,98.9,62.1,29.84,SSW,198,2.0,7.0,30,0.00,,---,0.00,VWS V14.01,2013-08-16 22:32:00,
2013-08-16 15:37:00,98.7,62.8,29.84,SSW,203,1.0,7.0,31,0.00,,---,0.00,VWS V14.01,2013-08-16 22:37:00,
2013-08-16 15:42:00,98.4,61.7,29.84,SSW,199,3.0,8.0,30,0.00,,---,0.00,VWS V14.01,2013-08-16 22:42:00,
2013-08-16 15:45:00,98.3,62.5,29.84,SSW,199,3.0,8.0,31,0.00,,---,0.00,VWS V14.01,2013-08-16 22:45:00,
2013-08-16 15:47:00,98.3,61.6,29.84,SSW,199,1.0,4.0,30,0.00,,---,0.00,VWS V14.01,2013-08-16 22:47:00,
2013-08-16 15:52:00,98.2,60.5,29.84,SSW,194,3.0,8.0,29,0.00,,---,0.00,VWS V14.01,2013-08-16 22:52:00,
2013-08-16 15:57:00,98.4,61.7,29.84,SSW,194,3.0,8.0,30,0.00,,---,0.00,VWS V14.01,2013-08-16 22:57:00,
2013-08-16 16:00:00,98.4,60.7,29.84,SSW,200,2.0,8.0,29,0.00,,---,0.00,VWS V14.01,2013-08-16 23:00:00,
2013-08-16 16:02:00,98.4,60.7,29.84,SSW,200,0.0,4.0,29,0.00,,---,0.00,VWS V14.01,2013-08-16 23:02:00,
2013-08-16 16:07:00,98.2,59.5,29.84,SSW,200,3.0,6.0,28,0.00,,---,0.00,VWS V14.01,2013-08-16 23:07:00,
2013-08-16 16:12:00,97.7,61.0,29.83,SSW,198,1.0,7.0,30,0.00,,---,0.00,VWS V14.01,2013-08-16 23:12:00,
2013-08-16 16:15:00,97.6,61.0,29.83,SSW,198,3.0,7.0,30,0.00,,---,0.00,VWS V14.01,2013-08-16 23:15:00,
2013-08-16 16:17:00,97.6,60.0,29.83,SSW,198,7.0,7.0,29,0.00,,---,0.00,VWS V14.01,2013-08-16 23:17:00,
2013-08-16 16:22:00,97.4,60.8,29.83,SSW,198,1.0,7.0,30,0.00,,---,0.00,VWS V14.01,2013-08-16 23:22:00,
2013-08-16 16:27:00,97.1,60.5,29.83,SSW,198,3.0,7.0,30,0.00,,---,0.00,VWS V14.01,2013-08-16 23:27:00,
2013-08-16 16:30:00,97.3,61.6,29.83,SSW,198,1.0,7.0,31,0.00,,---,0.00,VWS V14.01,2013-08-16 23:30:00,
2013-08-16 16:32:00,97.4,61.7,29.83,SSW,198,0.0,1.0,31,0.00,,---,0.00,VWS V14.01,2013-08-16 23:32:00,
2013-08-16 16:37:00,97.6,61.0,29.83,SSW,196,1.0,6.0,30,0.00,,---,0.00,VWS V14.01,2013-08-16 23:37:00,
2013-08-16 16:42:00,97.6,61.0,29.83,SSW,192,5.0,6.0,30,0.00,,---,0.00,VWS V14.01,2013-08-16 23:42:00,
2013-08-16 16:45:00,97.8,61.1,29.83,South,173,2.0,8.0,30,0.00,,---,0.00,VWS V14.01,2013-08-16 23:45:00,
2013-08-16 16:47:00,97.8,62.1,29.83,South,173,1.0,4.0,31,0.00,,---,0.00,VWS V14.01,2013-08-16 23:47:00,
2013-08-16 16:52:00,97.9,62.2,29.82,SSE,165,5.0,7.0,31,0.00,,---,0.00,VWS V14.01,2013-08-16 23:52:00,
2013-08-16 16:57:00,98.0,62.2,29.82,South,173,6.0,8.0,31,0.00,,---,0.00,VWS V14.01,2013-08-16 23:57:00,
2013-08-16 17:00:00,97.9,61.2,29.83,SSE,159,6.0,8.0,30,0.00,,---,0.00,VWS V14.01,2013-08-17 00:00:00,
2013-08-16 17:02:00,97.9,63.0,29.82,SSE,150,8.0,11.0,32,0.00,,---,0.00,VWS V14.01,2013-08-17 00:02:00,
2013-08-16 17:07:00,97.8,61.1,29.82,South,173,5.0,11.0,30,0.00,,---,0.00,VWS V14.01,2013-08-17 00:07:00,
2013-08-16 17:12:00,97.9,61.2,29.82,SSE,162,5.0,11.0,30,0.00,,---,0.00,VWS V14.01,2013-08-17 00:12:00,
2013-08-16 17:15:00,97.8,62.1,29.82,SE,142,7.0,11.0,31,0.00,,---,0.00,VWS V14.01,2013-08-17 00:15:00,
2013-08-16 17:17:00,97.8,62.1,29.82,SSE,151,9.0,10.0,31,0.00,,---,0.00,VWS V14.01,2013-08-17 00:17:00,
2013-08-16 17:22:00,97.7,61.0,29.82,SSE,148,9.0,10.0,30,0.00,,---,0.00,VWS V14.01,2013-08-17 00:22:00,
2013-08-16 17:27:00,97.6,61.0,29.82,SE,136,5.0,13.0,30,0.00,,---,0.00,VWS V14.01,2013-08-17 00:27:00,
2013-08-16 17:30:00,97.6,60.0,29.82,SSE,151,7.0,13.0,29,0.00,,---,0.00,VWS V14.01,2013-08-17 00:30:00,
2013-08-16 17:32:00,97.6,61.9,29.82,SSE,158,9.0,10.0,31,0.00,,---,0.00,VWS V14.01,2013-08-17 00:32:00,
2013-08-16 17:37:00,97.5,60.9,29.82,SE,142,9.0,12.0,30,0.00,,---,0.00,VWS V14.01,2013-08-17 00:37:00,
2013-08-16 17:42:00,97.3,60.7,29.82,SSE,159,7.0,12.0,30,0.00,,---,0.00,VWS V14.01,2013-08-17 00:42:00,
2013-08-16 17:45:00,97.2,60.6,29.81,SSE,157,8.0,12.0,30,0.00,,---,0.00,VWS V14.01,2013-08-17 00:45:00,
2013-08-16 17:47:00,97.1,61.5,29.82,SSE,147,9.0,13.0,31,0.00,,---,0.00,VWS V14.01,2013-08-17 00:47:00,
2013-08-16 17:52:00,97.0,61.4,29.81,SSE,158,5.0,13.0,31,0.00,,---,0.00,VWS V14.01,2013-08-17 00:52:00,
2013-08-16 17:57:00,96.9,60.4,29.81,SSE,151,8.0,13.0,30,0.00,,---,0.00,VWS V14.01,2013-08-17 00:57:00,
2013-08-16 18:00:00,96.8,60.3,29.81,SSE,165,7.0,13.0,30,0.00,,---,0.00,VWS V14.01,2013-08-17 01:00:00,
2013-08-16 18:02:00,96.8,60.3,29.81,South,172,8.0,9.0,30,0.00,,---,0.00,VWS V14.01,2013-08-17 01:02:00,
2013-08-16 18:07:00,96.5,60.0,29.81,SSE,155,8.0,13.0,30,0.00,,---,0.00,VWS V14.01,2013-08-17 01:07:00,
2013-08-16 18:12:00,96.0,60.5,29.81,SSE,148,9.0,13.0,31,0.00,,---,0.00,VWS V14.01,2013-08-17 01:12:00,
2013-08-16 18:15:00,95.6,61.1,29.81,South,172,6.0,13.0,32,0.00,,---,0.00,VWS V14.01,2013-08-17 01:15:00,
2013-08-16 18:17:00,95.5,60.1,29.81,South,176,12.0,12.0,31,0.00,,---,0.00,VWS V14.01,2013-08-17 01:17:00,
2013-08-16 18:22:00,95.2,60.7,29.81,South,175,8.0,13.0,32,0.00,,---,0.00,VWS V14.01,2013-08-17 01:22:00,
2013-08-16 18:27:00,94.9,61.3,29.81,SSE,162,9.0,13.0,33,0.00,,---,0.00,VWS V14.01,2013-08-17 01:27:00,
2013-08-16 18:30:00,94.5,61.8,29.81,SSE,168,8.0,13.0,34,0.00,,---,0.00,VWS V14.01,2013-08-17 01:30:00,
2013-08-16 18:32:00,94.4,61.7,29.81,South,176,7.0,10.0,34,0.00,,---,0.00,VWS V14.01,2013-08-17 01:32:00,
2013-08-16 18:37:00,94.0,61.4,29.81,SSE,168,7.0,11.0,34,0.00,,---,0.00,VWS V14.01,2013-08-17 01:37:00,
2013-08-16 18:42:00,93.5,60.1,29.81,SSE,165,4.0,11.0,33,0.00,,---,0.00,VWS V14.01,2013-08-17 01:42:00,
2013-08-16 18:45:00,93.2,60.7,29.81,SSE,164,7.0,11.0,34,0.00,,---,0.00,VWS V14.01,2013-08-17 01:45:00,
2013-08-16 18:47:00,93.1,60.6,29.81,SSE,165,6.0,9.0,34,0.00,,---,0.00,VWS V14.01,2013-08-17 01:47:00,
2013-08-16 18:52:00,92.6,61.0,29.81,SSE,167,9.0,10.0,35,0.00,,---,0.00,VWS V14.01,2013-08-17 01:52:00,
2013-08-16 18:57:00,92.1,61.3,29.81,SSE,157,4.0,10.0,36,0.00,,---,0.00,VWS V14.01,2013-08-17 01:57:00,
2013-08-16 19:00:00,91.8,61.8,29.81,SSE,150,5.0,10.0,37,0.00,,---,0.00,VWS V14.01,2013-08-17 02:00:00,
2013-08-16 19:02:00,91.7,61.8,29.81,SSE,152,5.0,7.0,37,0.00,,---,0.00,VWS V14.01,2013-08-17 02:02:00,
2013-08-16 19:07:00,91.3,62.2,29.81,SSE,148,6.0,9.0,38,0.00,,---,0.00,VWS V14.01,2013-08-17 02:07:00,
2013-08-16 19:12:00,90.9,61.8,29.81,SSE,148,5.0,11.0,38,0.00,,---,0.00,VWS V14.01,2013-08-17 02:12:00,
2013-08-16 19:15:00,90.4,61.4,29.80,SSE,148,7.0,11.0,38,0.00,,---,0.00,VWS V14.01,2013-08-17 02:15:00,
2013-08-16 19:17:00,90.4,62.1,29.81,SE,143,10.0,10.0,39,0.00,,---,0.00,VWS V14.01,2013-08-17 02:17:00,
2013-08-16 19:22:00,89.9,61.7,29.81,SSE,148,6.0,10.0,39,0.00,,---,0.00,VWS V14.01,2013-08-17 02:22:00,
2013-08-16 19:27:00,89.4,61.2,29.81,SSE,150,4.0,10.0,39,0.00,,---,0.00,VWS V14.01,2013-08-17 02:27:00,
2013-08-16 19:30:00,89.1,61.7,29.81,SSE,148,5.0,10.0,40,0.00,,---,0.00,VWS V14.01,2013-08-17 02:30:00,
2013-08-16 19:32:00,89.1,60.9,29.81,SSE,148,5.0,7.0,39,0.00,,---,0.00,VWS V14.01,2013-08-17 02:32:00,
2013-08-16 19:37:00,88.6,60.5,29.81,SE,142,6.0,9.0,39,0.00,,---,0.00,VWS V14.01,2013-08-17 02:37:00,
2013-08-16 19:42:00,88.1,60.0,29.81,SE,142,7.0,9.0,39,0.00,,---,0.00,VWS V14.01,2013-08-17 02:42:00,
2013-08-16 19:45:00,87.8,60.5,29.81,SE,142,5.0,9.0,40,0.00,,---,0.00,VWS V14.01,2013-08-17 02:45:00,
2013-08-16 19:47:00,87.7,60.4,29.81,SE,143,5.0,5.0,40,0.00,,---,0.00,VWS V14.01,2013-08-17 02:47:00,
2013-08-16 19:52:00,87.2,60.7,29.81,SE,145,5.0,7.0,41,0.00,,---,0.00,VWS V14.01,2013-08-17 02:52:00,
2013-08-16 19:57:00,86.6,60.8,29.81,SSE,154,4.0,7.0,42,0.00,,---,0.00,VWS V14.01,2013-08-17 02:57:00,
2013-08-16 20:00:00,86.0,60.3,29.81,SSE,157,2.0,7.0,42,0.00,,---,0.00,VWS V14.01,2013-08-17 03:00:00,
2013-08-16 20:02:00,85.9,60.2,29.81,SSE,157,2.0,5.0,42,0.00,,---,0.00,VWS V14.01,2013-08-17 03:02:00,
2013-08-16 20:07:00,85.4,60.4,29.81,SSE,157,2.0,5.0,43,0.00,,---,0.00,VWS V14.01,2013-08-17 03:07:00,
2013-08-16 20:12:00,84.9,60.6,29.81,SSE,157,2.0,5.0,44,0.00,,---,0.00,VWS V14.01,2013-08-17 03:12:00,
2013-08-16 20:15:00,84.5,60.8,29.82,SSE,157,5.0,6.0,45,0.00,,---,0.00,VWS V14.01,2013-08-17 03:15:00,
2013-08-16 20:17:00,84.4,60.8,29.82,SSE,157,5.0,5.0,45,0.00,,---,0.00,VWS V14.01,2013-08-17 03:17:00,
2013-08-16 20:22:00,83.8,60.2,29.82,SSE,151,5.0,7.0,45,0.00,,---,0.00,VWS V14.01,2013-08-17 03:22:00,
2013-08-16 20:27:00,83.2,59.7,29.82,SSE,151,4.0,7.0,45,0.00,,---,0.00,VWS V14.01,2013-08-17 03:27:00,
2013-08-16 20:30:00,82.7,59.2,29.82,SSE,150,4.0,7.0,45,0.00,,---,0.00,VWS V14.01,2013-08-17 03:30:00,
2013-08-16 20:32:00,82.6,59.1,29.82,SSE,150,4.0,5.0,45,0.00,,---,0.00,VWS V14.01,2013-08-17 03:32:00,
2013-08-16 20:37:00,82.1,58.7,29.82,SSE,150,2.0,6.0,45,0.00,,---,0.00,VWS V14.01,2013-08-17 03:37:00,
2013-08-16 20:42:00,81.6,58.8,29.82,SSE,150,4.0,6.0,46,0.00,,---,0.00,VWS V14.01,2013-08-17 03:42:00,
2013-08-16 20:45:00,81.0,58.3,29.82,SSE,151,2.0,6.0,46,0.00,,---,0.00,VWS V14.01,2013-08-17 03:45:00,
2013-08-16 20:46:00,81.0,58.3,29.82,SSE,151,1.0,4.0,46,0.00,,---,0.00,VWS V14.01,2013-08-17 03:46:00,
2013-08-16 20:51:00,80.5,58.4,29.82,SSE,151,4.0,4.0,47,0.00,,---,0.00,VWS V14.01,2013-08-17 03:51:00,
2013-08-16 20:56:00,80.1,58.7,29.83,SSE,150,4.0,5.0,48,0.00,,---,0.00,VWS V14.01,2013-08-17 03:56:00,
2013-08-16 21:00:00,79.7,58.3,29.83,SSE,148,4.0,6.0,48,0.00,,---,0.00,VWS V14.01,2013-08-17 04:00:00,
2013-08-16 21:01:00,79.7,58.3,29.83,SSE,148,4.0,6.0,48,0.00,,---,0.00,VWS V14.01,2013-08-17 04:01:00,
2013-08-16 21:06:00,79.2,57.8,29.82,SSE,148,4.0,6.0,48,0.00,,---,0.00,VWS V14.01,2013-08-17 04:06:00,
2013-08-16 21:11:00,78.8,57.5,29.82,SSE,148,5.0,6.0,48,0.00,,---,0.00,VWS V14.01,2013-08-17 04:11:00,
2013-08-16 21:15:00,78.4,57.7,29.83,SSE,148,1.0,6.0,49,0.00,,---,0.00,VWS V14.01,2013-08-17 04:15:00,
2013-08-16 21:16:00,78.4,57.7,29.83,SSE,148,2.0,6.0,49,0.00,,---,0.00,VWS V14.01,2013-08-17 04:16:00,
2013-08-16 21:21:00,78.1,57.4,29.83,SSE,148,4.0,4.0,49,0.00,,---,0.00,VWS V14.01,2013-08-17 04:21:00,
2013-08-16 21:26:00,77.8,57.7,29.83,SSE,148,2.0,4.0,50,0.00,,---,0.00,VWS V14.01,2013-08-17 04:26:00,
2013-08-16 21:30:00,77.4,57.3,29.83,SSE,148,5.0,6.0,50,0.00,,---,0.00,VWS V14.01,2013-08-17 04:30:00,
2013-08-16 21:31:00,77.4,57.3,29.83,SSE,148,6.0,6.0,50,0.00,,---,0.00,VWS V14.01,2013-08-17 04:31:00,
2013-08-16 21:36:00,77.1,57.0,29.83,SSE,148,6.0,6.0,50,0.00,,---,0.00,VWS V14.01,2013-08-17 04:36:00,
2013-08-16 21:41:00,76.8,56.8,29.83,SSE,148,4.0,6.0,50,0.00,,---,0.00,VWS V14.01,2013-08-17 04:41:00,
2013-08-16 21:45:00,76.4,56.4,29.83,SSE,148,4.0,6.0,50,0.00,,---,0.00,VWS V14.01,2013-08-17 04:45:00,
2013-08-16 21:46:00,76.4,56.4,29.83,SSE,148,5.0,6.0,50,0.00,,---,0.00,VWS V14.01,2013-08-17 04:46:00,
2013-08-16 21:50:00,76.2,56.8,29.83,SSE,147,4.0,7.0,51,0.00,,---,0.00,VWS V14.01,2013-08-17 04:50:00,
2013-08-16 21:55:00,75.8,56.4,29.83,SSE,147,2.0,7.0,51,0.00,,---,0.00,VWS V14.01,2013-08-17 04:55:00,
2013-08-16 22:00:00,75.5,56.1,29.83,SSE,147,4.0,7.0,51,0.00,,---,0.00,VWS V14.01,2013-08-17 05:00:00,
2013-08-16 22:05:00,75.3,56.5,29.83,SSE,147,4.0,6.0,52,0.00,,---,0.00,VWS V14.01,2013-08-17 05:05:00,
2013-08-16 22:15:00,74.6,56.4,29.83,SSE,158,5.0,7.0,53,0.00,,---,0.00,VWS V14.01,2013-08-17 05:15:00,
2013-08-16 22:30:00,73.7,56.5,29.83,SSE,158,5.0,7.0,55,0.00,,---,0.00,VWS V14.01,2013-08-17 05:30:00,
2013-08-16 22:45:00,72.8,56.2,29.83,SSE,158,4.0,7.0,56,0.00,,---,0.00,VWS V14.01,2013-08-17 05:45:00,
2013-08-16 23:00:00,72.1,56.0,29.83,SSE,158,2.0,5.0,57,0.00,,---,0.00,VWS V14.01,2013-08-17 06:00:00,
2013-08-16 23:15:00,71.3,55.8,29.83,SSE,158,1.0,4.0,58,0.00,,---,0.00,VWS V14.01,2013-08-17 06:15:00,
2013-08-16 23:30:00,70.4,54.9,29.83,SSE,158,3.0,7.0,58,0.00,,---,0.00,VWS V14.01,2013-08-17 06:30:00,
2013-08-16 23:45:00,69.5,55.0,29.84,SE,135,4.0,8.0,60,0.00,,---,0.00,VWS V14.01,2013-08-17 06:45:00,